TOPSWRTT 000
TTAA00 KICT 212112

Wichita AWIPS Roundup
National Weather Service Wichita KS
400 PM CDT THU AUG 21 2014

....Central Kansas....
  
CITY           SKY/WX    TMP DP  RH WIND       PRES   REMARKS
RUSSELL        SUNNY     98  67  36 S16G28    29.82S HX 102           
SALINA         SUNNY    100  67  33 S20G31    29.81F HX 105           
GREAT BEND     SUNNY     99  64  32 S22G30    29.83F HX 101           
ELLSWORTH      SUNNY    100  64  30 S17G24    29.82S HX 103           
MCPHERSON      MOSUNNY   99  64  32 S20G29    29.84S HX 101           
HAYS           MOSUNNY   99  64  32 SW15G24   29.83S HX 101           

....South Central Kansas....
  
CITY           SKY/WX    TMP DP  RH WIND       PRES   REMARKS
HUTCHINSON     SUNNY    100  64  30 S23G31    29.85F HX 102           
NEWTON         SUNNY     97  66  36 S25G31    29.90F HX 100           
KINGMAN        SUNNY    100  66  32 S21G31    29.86S HX 104           
WICHITA (ICT)  MOSUNNY   98  68  37 S20G31    29.86F HX 103           
JABARA ARPT    MOSUNNY   96  68  39 S22G31    29.87F HX 101           
MCCONNELL AFB  SUNNY     97  68  38 S22       29.88F HX 101           
EL DORADO      FAIR      97  70  41 S22G28    29.89S HX 103           
HARPER           N/A     99  66  34 S23G32    29.89F HX 102           
WELLINGTON     MOSUNNY   99  70  39 S17G23    29.88F HX 105           
WINFIELD       SUNNY     97  69  40 S17G29    29.90F HX 103           
 
....Southeast Kansas....
  
CITY           SKY/WX    TMP DP  RH WIND       PRES   REMARKS
EUREKA         SUNNY    100  66  32 S18G25    29.88F HX 104           
CHANUTE        SUNNY     97  69  40 S22       29.92F HX 103           
PARSONS        MOSUNNY   94  73  50 S14G22    29.93F HX 103           
COFFEYVILLE    SUNNY     95  74  50 S17G26    29.92F HX 105           
INDEPENDENCE   SUNNY     95  70  43 S16G23    29.92S HX 101           
FORT SCOTT     SUNNY     97  72  44 MISG      29.90F HX 105           
PITTSBURG      MOSUNNY   96  71  42 SW17      29.93F HX 103           

....Western Kansas....
  
CITY           SKY/WX    TMP DP  RH WIND       PRES   REMARKS
GOODLAND       SUNNY     93  47  20 N13       29.97F HX  89           
HILL CITY      SUNNY     97  62  31 N7        29.85S HX  98           
LIBERAL        SUNNY    100  54  20 S15G21    29.90S HX  98           
GARDEN CITY    SUNNY     95  59  30 SW8       29.88F HX  94           
DODGE CITY     LGT RAIN  97  64  33 S13       29.86F HX  99           
PRATT          SUNNY     97  61  30 S16G26    29.87F HX  97           
MEDICINE LODGE   N/A     99  65  32 S21       29.84F HX 102           

....Northeast Kansas....
  
CITY           SKY/WX    TMP DP  RH WIND       PRES   REMARKS
CONCORDIA      SUNNY     94  69  44 S16G25    29.82S HX  99           
TOPEKA         SUNNY     99  71  40 S13G21    29.84F HX 107           
MANHATTAN      SUNNY    102  67  31 S14G26    29.81F HX 107           
LAWRENCE       SUNNY    100  70  37 SW15G26   29.85F HX 107           
OLATHE         SUNNY     94  72  48 S12       29.88F HX 102           
EMPORIA        SUNNY     97  69  40 S17G28    29.87F HX 103           

....Oklahoma....
  
CITY           SKY/WX    TMP DP  RH WIND       PRES   REMARKS
GAGE           SUNNY     99  62  29 S22G32    29.89F HX 100           
PONCA CITY     SUNNY     97  69  40 SW14G21   29.89F HX 103           
BARTLESVILLE   MOSUNNY   96  72  45 S17G25    29.92F HX 104           
TULSA          MOSUNNY   96  71  44 S17G24    29.92F HX 103           
OKLAHOMA CITY  MOSUNNY   97  67  37 S15G22    29.92F HX 101           

Note: "fair" indicates few or no clouds below 12,000 feet with no
significant weather and/or obstructions to visibility.
  

USA.gov is the U.S. government's official web portal to all federal, state and local government web resources and services.